カタログに戻る

USA 384

運用中軍事VLEO
NORAD 60167·PAYLOAD·🇺🇸 United States

打ち上げ Jun 29, 2024 から Vandenberg Space Force Base

Loading…

次のパス (今後24時間)

TLE

古いSource: Mike McCants

元期: Aug 26, 2026, 01:10 UTC

1 60167U 24121K   26238.04875283 0.00000000  00000-0  00000-0 0    01
2 60167  70.0203 211.5932 0002000 223.9860 136.0140 14.96713340    02

AllMySatでUSA 384をリアルタイム追跡

Download on the App Store